Year,Month,Day,Hour,Minute,Value (Times are PST for temperature in C)
2008,07,12,00,00,14.20
2008,07,12,00,01,14.20
2008,07,12,00,02,14.20
2008,07,12,00,03,14.20
2008,07,12,00,04,14.20
2008,07,12,00,05,14.20
2008,07,12,00,06,14.20
2008,07,12,00,07,14.20
2008,07,12,00,08,14.20
2008,07,12,00,09,14.20
2008,07,12,00,10,14.10
2008,07,12,00,11,14.10
2008,07,12,00,12,14.10
2008,07,12,00,13,14.10
2008,07,12,00,14,14.10
2008,07,12,00,15,14.10
2008,07,12,00,16,14.10
2008,07,12,00,17,14.10
2008,07,12,00,18,14.10
2008,07,12,00,19,14.10
2008,07,12,00,20,14.00
2008,07,12,00,21,14.00
2008,07,12,00,22,14.00
2008,07,12,00,23,14.00
2008,07,12,00,24,14.00
2008,07,12,00,25,14.00
2008,07,12,00,26,14.00
2008,07,12,00,27,14.00
2008,07,12,00,28,14.00
2008,07,12,00,29,13.90
2008,07,12,00,30,13.90
2008,07,12,00,31,13.90
2008,07,12,00,32,13.90
2008,07,12,00,33,13.90
2008,07,12,00,34,13.90
2008,07,12,00,35,13.80
2008,07,12,00,36,13.80
2008,07,12,00,37,13.80
2008,07,12,00,38,13.80
2008,07,12,00,39,13.70
2008,07,12,00,40,13.70
2008,07,12,00,41,13.70
2008,07,12,00,42,13.70
2008,07,12,00,43,13.70
2008,07,12,00,44,13.80
2008,07,12,00,45,13.80
2008,07,12,00,46,13.80
2008,07,12,00,47,13.90
2008,07,12,00,48,13.90
2008,07,12,00,49,13.90
2008,07,12,00,50,13.90
2008,07,12,00,51,13.90
2008,07,12,00,52,13.90
2008,07,12,00,53,13.90
2008,07,12,00,54,13.90
2008,07,12,00,55,13.90
2008,07,12,00,56,13.90
2008,07,12,00,57,13.90
2008,07,12,00,58,13.80
2008,07,12,00,59,13.80
2008,07,12,01,00,13.80
2008,07,12,01,01,13.80
2008,07,12,01,02,13.80
2008,07,12,01,03,13.70
2008,07,12,01,04,13.70
2008,07,12,01,05,13.70
2008,07,12,01,06,13.70
2008,07,12,01,07,13.70
2008,07,12,01,08,13.70
2008,07,12,01,09,13.70
2008,07,12,01,10,13.60
2008,07,12,01,11,13.60
2008,07,12,01,12,13.60
2008,07,12,01,13,13.60
2008,07,12,01,14,13.60
2008,07,12,01,15,13.50
2008,07,12,01,16,13.50
2008,07,12,01,17,13.50
2008,07,12,01,18,13.50
2008,07,12,01,19,13.50
2008,07,12,01,20,13.50
2008,07,12,01,21,13.50
2008,07,12,01,22,13.50
2008,07,12,01,23,13.50
2008,07,12,01,24,13.50
2008,07,12,01,25,13.60
2008,07,12,01,26,13.60
2008,07,12,01,27,13.60
2008,07,12,01,28,13.60
2008,07,12,01,29,13.60
2008,07,12,01,30,13.60
2008,07,12,01,31,13.60
2008,07,12,01,32,13.60
2008,07,12,01,33,13.60
2008,07,12,01,34,13.60
2008,07,12,01,35,13.60
2008,07,12,01,36,13.60
2008,07,12,01,37,13.60
2008,07,12,01,38,13.60
2008,07,12,01,39,13.60
2008,07,12,01,40,13.50
2008,07,12,01,41,13.50
2008,07,12,01,42,13.50
2008,07,12,01,43,13.50
2008,07,12,01,44,13.50
2008,07,12,01,45,13.50
2008,07,12,01,46,13.40
2008,07,12,01,47,13.40
2008,07,12,01,48,13.40
2008,07,12,01,49,13.40
2008,07,12,01,50,13.40
2008,07,12,01,51,13.40
2008,07,12,01,52,13.40
2008,07,12,01,53,13.40
2008,07,12,01,54,13.40
2008,07,12,01,55,13.40
2008,07,12,01,56,13.40
2008,07,12,01,57,13.40
2008,07,12,01,58,13.40
2008,07,12,01,59,13.40
2008,07,12,02,00,13.40
2008,07,12,02,01,13.30
2008,07,12,02,02,13.30
2008,07,12,02,03,13.30
2008,07,12,02,04,13.30
2008,07,12,02,05,13.30
2008,07,12,02,06,13.30
2008,07,12,02,07,13.30
2008,07,12,02,08,13.30
2008,07,12,02,09,13.30
2008,07,12,02,10,13.30
2008,07,12,02,11,13.30
2008,07,12,02,12,13.30
2008,07,12,02,13,13.30
2008,07,12,02,14,13.30
2008,07,12,02,15,13.30
2008,07,12,02,16,13.30
2008,07,12,02,17,13.30
2008,07,12,02,18,13.30
2008,07,12,02,19,13.30
2008,07,12,02,20,13.20
2008,07,12,02,21,13.20
2008,07,12,02,22,13.20
2008,07,12,02,23,13.20
2008,07,12,02,24,13.20
2008,07,12,02,25,13.10
2008,07,12,02,26,13.10
2008,07,12,02,27,13.10
2008,07,12,02,28,13.10
2008,07,12,02,29,13.10
2008,07,12,02,30,13.00
2008,07,12,02,31,13.00
2008,07,12,02,32,13.00
2008,07,12,02,33,13.00
2008,07,12,02,34,13.00
2008,07,12,02,35,13.00
2008,07,12,02,36,12.90
2008,07,12,02,37,12.90
2008,07,12,02,38,12.90
2008,07,12,02,39,12.90
2008,07,12,02,40,12.90
2008,07,12,02,41,12.80
2008,07,12,02,42,12.80
2008,07,12,02,43,12.80
2008,07,12,02,44,12.80
2008,07,12,02,45,12.80
2008,07,12,02,46,12.80
2008,07,12,02,47,12.80
2008,07,12,02,48,12.80
2008,07,12,02,49,12.80
2008,07,12,02,50,12.80
2008,07,12,02,51,12.80
2008,07,12,02,52,12.80
2008,07,12,02,53,12.80
2008,07,12,02,54,12.70
2008,07,12,02,55,12.70
2008,07,12,02,56,12.70
2008,07,12,02,57,12.70
2008,07,12,02,58,12.60
2008,07,12,02,59,12.60
2008,07,12,03,00,12.60
2008,07,12,03,01,12.60
2008,07,12,03,02,12.60
2008,07,12,03,03,12.60
2008,07,12,03,04,12.60
2008,07,12,03,05,12.60
2008,07,12,03,06,12.50
2008,07,12,03,07,12.50
2008,07,12,03,08,12.50
2008,07,12,03,09,12.50
2008,07,12,03,10,12.50
2008,07,12,03,11,12.40
2008,07,12,03,12,12.40
2008,07,12,03,13,12.40
2008,07,12,03,14,12.30
2008,07,12,03,15,12.30
2008,07,12,03,16,12.30
2008,07,12,03,17,12.30
2008,07,12,03,18,12.30
2008,07,12,03,19,12.20
2008,07,12,03,20,12.20
2008,07,12,03,21,12.20
2008,07,12,03,22,12.20
2008,07,12,03,23,12.10
2008,07,12,03,24,12.10
2008,07,12,03,25,12.10
2008,07,12,03,26,12.10
2008,07,12,03,27,12.10
2008,07,12,03,28,12.10
2008,07,12,03,29,12.10
2008,07,12,03,30,12.10
2008,07,12,03,31,12.10
2008,07,12,03,32,12.20
2008,07,12,03,33,12.20
2008,07,12,03,34,12.10
2008,07,12,03,35,12.10
2008,07,12,03,36,12.10
2008,07,12,03,37,12.10
2008,07,12,03,38,12.10
2008,07,12,03,39,12.10
2008,07,12,03,40,12.10
2008,07,12,03,41,12.10
2008,07,12,03,42,12.10
2008,07,12,03,43,12.00
2008,07,12,03,44,12.00
2008,07,12,03,45,12.00
2008,07,12,03,46,12.00
2008,07,12,03,47,12.00
2008,07,12,03,48,11.90
2008,07,12,03,49,11.90
2008,07,12,03,50,11.90
2008,07,12,03,51,11.90
2008,07,12,03,52,11.90
2008,07,12,03,53,11.80
2008,07,12,03,54,11.80
2008,07,12,03,55,11.80
2008,07,12,03,56,11.80
2008,07,12,03,57,11.80
2008,07,12,03,58,11.80
2008,07,12,03,59,11.80
2008,07,12,04,00,11.80
2008,07,12,04,01,11.80
2008,07,12,04,02,11.80
2008,07,12,04,03,11.80
2008,07,12,04,04,11.80
2008,07,12,04,05,11.80
2008,07,12,04,06,11.80
2008,07,12,04,07,11.80
2008,07,12,04,08,11.80
2008,07,12,04,09,11.80
2008,07,12,04,10,11.80
2008,07,12,04,11,11.70
2008,07,12,04,12,11.70
2008,07,12,04,13,11.70
2008,07,12,04,14,11.70
2008,07,12,04,15,11.70
2008,07,12,04,16,11.60
2008,07,12,04,17,11.60
2008,07,12,04,18,11.60
2008,07,12,04,19,11.60
2008,07,12,04,20,11.60
2008,07,12,04,21,11.60
2008,07,12,04,22,11.50
2008,07,12,04,23,11.40
2008,07,12,04,24,11.40
2008,07,12,04,25,11.40
2008,07,12,04,26,11.40
2008,07,12,04,27,11.40
2008,07,12,04,28,11.40
2008,07,12,04,29,11.40
2008,07,12,04,30,11.40
2008,07,12,04,31,11.40
2008,07,12,04,32,11.40
2008,07,12,04,33,11.40
2008,07,12,04,34,11.40
2008,07,12,04,35,11.40
2008,07,12,04,36,11.40
2008,07,12,04,37,11.30
2008,07,12,04,38,11.40
2008,07,12,04,39,11.40
2008,07,12,04,40,11.40
2008,07,12,04,41,11.40
2008,07,12,04,42,11.40
2008,07,12,04,43,11.40
2008,07,12,04,44,11.40
2008,07,12,04,45,11.40
2008,07,12,04,46,11.30
2008,07,12,04,47,11.30
2008,07,12,04,48,11.30
2008,07,12,04,49,11.30
2008,07,12,04,50,11.30
2008,07,12,04,51,11.40
2008,07,12,04,52,11.40
2008,07,12,04,53,11.40
2008,07,12,04,54,11.40
2008,07,12,04,55,11.40
2008,07,12,04,56,11.40
2008,07,12,04,57,11.40
2008,07,12,04,58,11.40
2008,07,12,04,59,11.30
2008,07,12,05,00,11.30
2008,07,12,05,01,11.30
2008,07,12,05,02,11.30
2008,07,12,05,03,11.30
2008,07,12,05,04,11.30
2008,07,12,05,05,11.30
2008,07,12,05,06,11.20
2008,07,12,05,07,11.20
2008,07,12,05,08,11.20
2008,07,12,05,09,11.20
2008,07,12,05,10,11.20
2008,07,12,05,11,11.10
2008,07,12,05,12,11.10
2008,07,12,05,13,11.10
2008,07,12,05,14,11.20
2008,07,12,05,15,11.20
2008,07,12,05,16,11.20
2008,07,12,05,17,11.20
2008,07,12,05,18,11.20
2008,07,12,05,19,11.10
2008,07,12,05,20,11.10
2008,07,12,05,21,11.10
2008,07,12,05,22,11.10
2008,07,12,05,23,11.10
2008,07,12,05,24,11.10
2008,07,12,05,25,11.10
2008,07,12,05,26,11.10
2008,07,12,05,27,11.10
2008,07,12,05,28,11.10
2008,07,12,05,29,11.20
2008,07,12,05,30,11.20
2008,07,12,05,31,11.20
2008,07,12,05,32,11.20
2008,07,12,05,33,11.20
2008,07,12,05,34,11.20
2008,07,12,05,35,11.20
2008,07,12,05,36,11.20
2008,07,12,05,37,11.20
2008,07,12,05,38,11.10
2008,07,12,05,39,11.10
2008,07,12,05,40,11.10
2008,07,12,05,41,11.10
2008,07,12,05,42,11.10
2008,07,12,05,43,11.10
2008,07,12,05,44,11.10
2008,07,12,05,45,11.10
2008,07,12,05,46,11.10
2008,07,12,05,47,11.10
2008,07,12,05,48,11.10
2008,07,12,05,49,11.10
2008,07,12,05,50,11.20
2008,07,12,05,51,11.20
2008,07,12,05,52,11.20
2008,07,12,05,53,11.20
2008,07,12,05,54,11.30
2008,07,12,05,55,11.30
2008,07,12,05,56,11.30
2008,07,12,05,57,11.30
2008,07,12,05,58,11.30
2008,07,12,05,59,11.30
2008,07,12,06,00,11.40
2008,07,12,06,01,11.40
2008,07,12,06,02,11.40
2008,07,12,06,03,11.40
2008,07,12,06,04,11.40
2008,07,12,06,05,11.40
2008,07,12,06,06,11.40
2008,07,12,06,07,11.40
2008,07,12,06,08,11.40
2008,07,12,06,09,11.40
2008,07,12,06,10,11.40
2008,07,12,06,11,11.50
2008,07,12,06,12,11.60
2008,07,12,06,13,11.60
2008,07,12,06,14,11.60
2008,07,12,06,15,11.60
2008,07,12,06,16,11.60
2008,07,12,06,17,11.60
2008,07,12,06,18,11.60
2008,07,12,06,19,11.70
2008,07,12,06,20,11.70
2008,07,12,06,21,11.70
2008,07,12,06,22,11.80
2008,07,12,06,23,11.80
2008,07,12,06,24,11.80
2008,07,12,06,25,11.80
2008,07,12,06,26,11.80
2008,07,12,06,27,11.90
2008,07,12,06,28,12.00
2008,07,12,06,29,12.00
2008,07,12,06,30,12.10
2008,07,12,06,31,12.10
2008,07,12,06,32,12.10
2008,07,12,06,33,12.20
2008,07,12,06,34,12.20
2008,07,12,06,35,12.20
2008,07,12,06,36,12.30
2008,07,12,06,37,12.30
2008,07,12,06,38,12.30
2008,07,12,06,39,12.30
2008,07,12,06,40,12.40
2008,07,12,06,41,12.40
2008,07,12,06,42,12.50
2008,07,12,06,43,12.50
2008,07,12,06,44,12.60
2008,07,12,06,45,12.70
2008,07,12,06,46,12.70
2008,07,12,06,47,12.80
2008,07,12,06,48,12.80
2008,07,12,06,49,12.80
2008,07,12,06,50,12.80
2008,07,12,06,51,12.80
2008,07,12,06,52,12.80
2008,07,12,06,53,12.90
2008,07,12,06,54,13.00
2008,07,12,06,55,13.00
2008,07,12,06,56,13.00
2008,07,12,06,57,13.10
2008,07,12,06,58,13.10
2008,07,12,06,59,13.20
2008,07,12,07,00,13.20
2008,07,12,07,01,13.30
2008,07,12,07,02,13.30
2008,07,12,07,03,13.30
2008,07,12,07,04,13.40
2008,07,12,07,05,13.40
2008,07,12,07,06,13.50
2008,07,12,07,07,13.50
2008,07,12,07,08,13.60
2008,07,12,07,09,13.60
2008,07,12,07,10,13.70
2008,07,12,07,11,13.70
2008,07,12,07,12,13.80
2008,07,12,07,13,13.80
2008,07,12,07,14,13.90
2008,07,12,07,15,14.00
2008,07,12,07,16,14.10
2008,07,12,07,17,14.20
2008,07,12,07,18,14.30
2008,07,12,07,19,14.40
2008,07,12,07,20,14.60
2008,07,12,07,21,14.60
2008,07,12,07,22,14.70
2008,07,12,07,23,14.80
2008,07,12,07,24,14.80
2008,07,12,07,25,14.90
2008,07,12,07,26,14.90
2008,07,12,07,27,14.90
2008,07,12,07,28,15.00
2008,07,12,07,29,15.00
2008,07,12,07,30,15.00
2008,07,12,07,31,15.10
2008,07,12,07,32,15.10
2008,07,12,07,33,15.20
2008,07,12,07,34,15.30
2008,07,12,07,35,15.30
2008,07,12,07,36,15.30
2008,07,12,07,37,15.40
2008,07,12,07,38,15.60
2008,07,12,07,39,15.70
2008,07,12,07,40,15.70
2008,07,12,07,41,15.80
2008,07,12,07,42,15.90
2008,07,12,07,43,16.10
2008,07,12,07,44,16.30
2008,07,12,07,45,16.40
2008,07,12,07,46,16.50
2008,07,12,07,47,16.70
2008,07,12,07,48,16.80
2008,07,12,07,49,16.90
2008,07,12,07,50,17.00
2008,07,12,07,51,17.10
2008,07,12,07,52,17.20
2008,07,12,07,53,17.20
2008,07,12,07,54,17.30
2008,07,12,07,55,17.30
2008,07,12,07,56,17.50
2008,07,12,07,57,17.50
2008,07,12,07,58,17.60
2008,07,12,07,59,17.70
2008,07,12,08,00,17.70
2008,07,12,08,01,17.70
2008,07,12,08,02,17.70
2008,07,12,08,03,17.80
2008,07,12,08,04,17.90
2008,07,12,08,05,18.00
2008,07,12,08,06,18.20
2008,07,12,08,07,18.30
2008,07,12,08,08,18.40
2008,07,12,08,09,18.50
2008,07,12,08,10,18.60
2008,07,12,08,11,18.70
2008,07,12,08,12,18.90
2008,07,12,08,13,19.00
2008,07,12,08,14,19.10
2008,07,12,08,15,19.20
2008,07,12,08,16,19.20
2008,07,12,08,17,19.30
2008,07,12,08,18,19.40
2008,07,12,08,19,19.40
2008,07,12,08,20,19.50
2008,07,12,08,21,19.60
2008,07,12,08,22,19.70
2008,07,12,08,23,19.80
2008,07,12,08,24,19.90
2008,07,12,08,25,19.90
2008,07,12,08,26,20.00
2008,07,12,08,27,20.10
2008,07,12,08,28,20.10
2008,07,12,08,29,20.10
2008,07,12,08,30,20.20
2008,07,12,08,31,20.20
2008,07,12,08,32,20.30
2008,07,12,08,33,20.30
2008,07,12,08,34,20.30
2008,07,12,08,35,20.20
2008,07,12,08,36,20.10
2008,07,12,08,37,20.00
2008,07,12,08,38,19.90
2008,07,12,08,39,20.00
2008,07,12,08,40,20.10
2008,07,12,08,41,20.10
2008,07,12,08,42,20.20
2008,07,12,08,43,20.20
2008,07,12,08,44,20.20
2008,07,12,08,45,20.20
2008,07,12,08,46,20.20
2008,07,12,08,47,20.20
2008,07,12,08,48,20.20
2008,07,12,08,49,20.10
2008,07,12,08,50,20.10
2008,07,12,08,51,20.10
2008,07,12,08,52,20.10
2008,07,12,08,53,20.00
2008,07,12,08,54,19.90
2008,07,12,08,55,19.70
2008,07,12,08,56,19.60
2008,07,12,08,57,19.50
2008,07,12,08,58,19.40
2008,07,12,08,59,19.30
2008,07,12,09,00,19.30
2008,07,12,09,01,19.40
2008,07,12,09,02,19.30
2008,07,12,09,03,19.30
2008,07,12,09,04,19.30
2008,07,12,09,05,19.10
2008,07,12,09,06,18.90
2008,07,12,09,07,18.60
2008,07,12,09,08,18.30
2008,07,12,09,09,18.20
2008,07,12,09,10,18.00
2008,07,12,09,11,17.90
2008,07,12,09,12,17.90
2008,07,12,09,13,17.90
2008,07,12,09,14,17.90
2008,07,12,09,15,17.90
2008,07,12,09,16,17.90
2008,07,12,09,17,17.90
2008,07,12,09,18,17.90
2008,07,12,09,19,17.90
2008,07,12,09,20,17.90
2008,07,12,09,21,17.90
2008,07,12,09,22,18.00
2008,07,12,09,23,18.10
2008,07,12,09,24,18.10
2008,07,12,09,25,18.10
2008,07,12,09,26,18.10
2008,07,12,09,27,18.10
2008,07,12,09,28,18.20
2008,07,12,09,29,18.30
2008,07,12,09,30,18.40
2008,07,12,09,31,18.50
2008,07,12,09,32,18.60
2008,07,12,09,33,18.80
2008,07,12,09,34,18.90
2008,07,12,09,35,19.00
2008,07,12,09,36,19.10
2008,07,12,09,37,19.10
2008,07,12,09,38,19.10
2008,07,12,09,39,19.30
2008,07,12,09,40,19.40
2008,07,12,09,41,19.50
2008,07,12,09,42,19.50
2008,07,12,09,43,19.50
2008,07,12,09,44,19.60
2008,07,12,09,45,19.60
2008,07,12,09,46,19.60
2008,07,12,09,47,19.70
2008,07,12,09,48,19.80
2008,07,12,09,49,19.90
2008,07,12,09,50,19.90
2008,07,12,09,51,20.10
2008,07,12,09,52,20.10
2008,07,12,09,53,20.10
2008,07,12,09,54,20.20
2008,07,12,09,55,20.20
2008,07,12,09,56,20.20
2008,07,12,09,57,20.20
2008,07,12,09,58,20.20
2008,07,12,09,59,20.20
2008,07,12,10,00,20.20
2008,07,12,10,01,20.20
2008,07,12,10,02,20.10
2008,07,12,10,03,19.90
2008,07,12,10,04,19.80
2008,07,12,10,05,19.80
2008,07,12,10,06,19.80
2008,07,12,10,07,19.90
2008,07,12,10,08,19.90
2008,07,12,10,09,20.10
2008,07,12,10,10,20.20
2008,07,12,10,11,20.20
2008,07,12,10,12,20.30
2008,07,12,10,13,20.40
2008,07,12,10,14,20.40
2008,07,12,10,15,20.30
2008,07,12,10,16,20.20
2008,07,12,10,17,20.20
2008,07,12,10,18,20.20
2008,07,12,10,19,20.20
2008,07,12,10,20,20.30
2008,07,12,10,21,20.50
2008,07,12,10,22,20.60
2008,07,12,10,23,20.80
2008,07,12,10,24,20.90
2008,07,12,10,25,20.90
2008,07,12,10,26,20.90
2008,07,12,10,27,20.80
2008,07,12,10,28,20.80
2008,07,12,10,29,20.80
2008,07,12,10,30,20.90
2008,07,12,10,31,20.90
2008,07,12,10,32,21.00
2008,07,12,10,33,20.80
2008,07,12,10,34,20.70
2008,07,12,10,35,20.50
2008,07,12,10,36,20.40
2008,07,12,10,37,20.40
2008,07,12,10,38,20.40
2008,07,12,10,39,20.30
2008,07,12,10,40,20.30
2008,07,12,10,41,20.40
2008,07,12,10,42,20.40
2008,07,12,10,43,20.40
2008,07,12,10,44,20.50
2008,07,12,10,45,20.50
2008,07,12,10,46,20.50
2008,07,12,10,47,20.60
2008,07,12,10,48,20.60
2008,07,12,10,49,20.60
2008,07,12,10,50,20.70
2008,07,12,10,51,20.80
2008,07,12,10,52,20.80
2008,07,12,10,53,20.90
2008,07,12,10,54,21.00
2008,07,12,10,55,21.10
2008,07,12,10,56,21.20
2008,07,12,10,57,21.30
2008,07,12,10,58,21.30
2008,07,12,10,59,21.20
2008,07,12,11,00,21.20
2008,07,12,11,01,21.10
2008,07,12,11,02,20.90
2008,07,12,11,03,20.80
2008,07,12,11,04,20.70
2008,07,12,11,05,20.60
2008,07,12,11,06,20.70
2008,07,12,11,07,20.70
2008,07,12,11,08,20.80
2008,07,12,11,09,20.90
2008,07,12,11,10,21.00
2008,07,12,11,11,21.10
2008,07,12,11,12,21.20
2008,07,12,11,13,21.20
2008,07,12,11,14,21.30
2008,07,12,11,15,21.30
2008,07,12,11,16,21.40
2008,07,12,11,17,21.50
2008,07,12,11,18,21.60
2008,07,12,11,19,21.70
2008,07,12,11,20,21.90
2008,07,12,11,21,22.00
2008,07,12,11,22,22.10
2008,07,12,11,23,22.20
2008,07,12,11,24,22.30
2008,07,12,11,25,22.30
2008,07,12,11,26,22.40
2008,07,12,11,27,22.50
2008,07,12,11,28,22.40
2008,07,12,11,29,22.40
2008,07,12,11,30,22.50
2008,07,12,11,31,22.50
2008,07,12,11,32,22.50
2008,07,12,11,33,22.60
2008,07,12,11,34,22.60
2008,07,12,11,35,22.60
2008,07,12,11,36,22.50
2008,07,12,11,37,22.50
2008,07,12,11,38,22.50
2008,07,12,11,39,22.50
2008,07,12,11,40,22.50
2008,07,12,11,41,22.50
2008,07,12,11,42,22.50
2008,07,12,11,43,22.60
2008,07,12,11,44,22.60
2008,07,12,11,45,22.50
2008,07,12,11,46,22.50
2008,07,12,11,47,22.50
2008,07,12,11,48,22.40
2008,07,12,11,49,22.40
2008,07,12,11,50,22.40
2008,07,12,11,51,22.30
2008,07,12,11,52,22.20
2008,07,12,11,53,22.10
2008,07,12,11,54,21.90
2008,07,12,11,55,21.80
2008,07,12,11,56,21.80
2008,07,12,11,57,21.80
2008,07,12,11,58,21.80
2008,07,12,11,59,21.80
2008,07,12,12,00,21.70
2008,07,12,12,01,21.70
2008,07,12,12,02,21.70
2008,07,12,12,03,21.60
2008,07,12,12,04,21.40
2008,07,12,12,05,21.30
2008,07,12,12,06,21.30
2008,07,12,12,07,21.40
2008,07,12,12,08,21.50
2008,07,12,12,09,21.60
2008,07,12,12,10,21.80
2008,07,12,12,11,22.00
2008,07,12,12,12,22.10
2008,07,12,12,13,22.10
2008,07,12,12,14,22.10
2008,07,12,12,15,22.00
2008,07,12,12,16,22.00
2008,07,12,12,17,22.10
2008,07,12,12,18,22.10
2008,07,12,12,19,22.10
2008,07,12,12,20,22.10
2008,07,12,12,21,22.00
2008,07,12,12,22,22.00
2008,07,12,12,23,21.90
2008,07,12,12,24,21.90
2008,07,12,12,25,21.70
2008,07,12,12,26,21.70
2008,07,12,12,27,21.60
2008,07,12,12,28,21.60
2008,07,12,12,29,21.70
2008,07,12,12,30,21.70
2008,07,12,12,31,21.70
2008,07,12,12,32,21.60
2008,07,12,12,33,21.70
2008,07,12,12,34,21.90
2008,07,12,12,35,22.00
2008,07,12,12,36,22.10
2008,07,12,12,37,22.10
2008,07,12,12,38,22.10
2008,07,12,12,39,22.00
2008,07,12,12,40,22.00
2008,07,12,12,41,22.00
2008,07,12,12,42,21.90
2008,07,12,12,43,21.80
2008,07,12,12,44,21.80
2008,07,12,12,45,21.90
2008,07,12,12,46,21.90
2008,07,12,12,47,21.90
2008,07,12,12,48,21.80
2008,07,12,12,49,21.90
2008,07,12,12,50,21.80
2008,07,12,12,51,21.80
2008,07,12,12,52,21.90
2008,07,12,12,53,22.00
2008,07,12,12,54,22.00
2008,07,12,12,55,22.10
2008,07,12,12,56,22.20
2008,07,12,12,57,22.40
2008,07,12,12,58,22.50
2008,07,12,12,59,22.50
2008,07,12,13,00,22.40
2008,07,12,13,01,22.40
2008,07,12,13,02,22.50
2008,07,12,13,03,22.50
2008,07,12,13,04,22.40
2008,07,12,13,05,22.40
2008,07,12,13,06,22.40
2008,07,12,13,07,22.30
2008,07,12,13,08,22.20
2008,07,12,13,09,22.10
2008,07,12,13,10,22.00
2008,07,12,13,11,22.10
2008,07,12,13,12,22.10
2008,07,12,13,13,22.20
2008,07,12,13,14,22.20
2008,07,12,13,15,22.00
2008,07,12,13,16,21.90
2008,07,12,13,17,21.70
2008,07,12,13,18,21.60
2008,07,12,13,19,21.60
2008,07,12,13,20,21.70
2008,07,12,13,21,21.70
2008,07,12,13,22,21.60
2008,07,12,13,23,21.50
2008,07,12,13,24,21.40
2008,07,12,13,25,21.30
2008,07,12,13,26,21.30
2008,07,12,13,27,21.40
2008,07,12,13,28,21.40
2008,07,12,13,29,21.50
2008,07,12,13,30,21.60
2008,07,12,13,31,21.70
2008,07,12,13,32,21.70
2008,07,12,13,33,21.70
2008,07,12,13,34,21.80
2008,07,12,13,35,22.00
2008,07,12,13,36,22.10
2008,07,12,13,37,22.20
2008,07,12,13,38,22.20
2008,07,12,13,39,22.00
2008,07,12,13,40,22.00
2008,07,12,13,41,21.90
2008,07,12,13,42,21.80
2008,07,12,13,43,21.60
2008,07,12,13,44,21.50
2008,07,12,13,45,21.40
2008,07,12,13,46,21.30
2008,07,12,13,47,21.30
2008,07,12,13,48,21.50
2008,07,12,13,49,21.60
2008,07,12,13,50,21.60
2008,07,12,13,51,21.60
2008,07,12,13,52,21.50
2008,07,12,13,53,21.40
2008,07,12,13,54,21.30
2008,07,12,13,55,21.30
2008,07,12,13,56,21.30
2008,07,12,13,57,21.30
2008,07,12,13,58,21.40
2008,07,12,13,59,21.40
2008,07,12,14,00,21.50
2008,07,12,14,01,21.60
2008,07,12,14,02,21.70
2008,07,12,14,03,21.80
2008,07,12,14,04,21.80
2008,07,12,14,05,21.80
2008,07,12,14,06,22.00
2008,07,12,14,07,22.10
2008,07,12,14,08,22.10
2008,07,12,14,09,22.00
2008,07,12,14,10,22.00
2008,07,12,14,11,22.00
2008,07,12,14,12,22.10
2008,07,12,14,13,22.20
2008,07,12,14,14,22.20
2008,07,12,14,15,22.30
2008,07,12,14,16,22.30
2008,07,12,14,17,22.30
2008,07,12,14,18,22.20
2008,07,12,14,19,22.10
2008,07,12,14,20,22.20
2008,07,12,14,21,22.30
2008,07,12,14,22,22.50
2008,07,12,14,23,22.60
2008,07,12,14,24,22.60
2008,07,12,14,25,22.60
2008,07,12,14,26,22.40
2008,07,12,14,27,22.40
2008,07,12,14,28,22.40
2008,07,12,14,29,22.40
2008,07,12,14,30,22.50
2008,07,12,14,31,22.50
2008,07,12,14,32,22.60
2008,07,12,14,33,22.70
2008,07,12,14,34,22.80
2008,07,12,14,35,22.70
2008,07,12,14,36,22.70
2008,07,12,14,37,22.80
2008,07,12,14,38,22.80
2008,07,12,14,39,22.80
2008,07,12,14,40,22.80
2008,07,12,14,41,22.90
2008,07,12,14,42,22.80
2008,07,12,14,43,22.70
2008,07,12,14,44,22.70
2008,07,12,14,45,22.70
2008,07,12,14,46,22.70
2008,07,12,14,47,22.60
2008,07,12,14,48,22.60
2008,07,12,14,49,22.70
2008,07,12,14,50,22.70
2008,07,12,14,51,22.60
2008,07,12,14,52,22.50
2008,07,12,14,53,22.50
2008,07,12,14,54,22.50
2008,07,12,14,55,22.60
2008,07,12,14,56,22.70
2008,07,12,14,57,22.90
2008,07,12,14,58,22.90
2008,07,12,14,59,22.90
2008,07,12,15,00,22.90
2008,07,12,15,01,22.80
2008,07,12,15,02,22.80
2008,07,12,15,03,22.80
2008,07,12,15,04,22.80
2008,07,12,15,05,22.80
2008,07,12,15,06,22.70
2008,07,12,15,07,22.60
2008,07,12,15,08,22.60
2008,07,12,15,09,22.60
2008,07,12,15,10,22.70
2008,07,12,15,11,22.60
2008,07,12,15,12,22.60
2008,07,12,15,13,22.60
2008,07,12,15,14,22.30
2008,07,12,15,15,22.00
2008,07,12,15,16,21.70
2008,07,12,15,17,21.40
2008,07,12,15,18,21.20
2008,07,12,15,19,20.90
2008,07,12,15,20,20.80
2008,07,12,15,21,20.80
2008,07,12,15,22,20.70
2008,07,12,15,23,20.70
2008,07,12,15,24,20.50
2008,07,12,15,25,20.30
2008,07,12,15,26,20.10
2008,07,12,15,27,20.10
2008,07,12,15,28,20.10
2008,07,12,15,29,20.20
2008,07,12,15,30,20.20
2008,07,12,15,31,20.20
2008,07,12,15,32,20.40
2008,07,12,15,33,20.60
2008,07,12,15,34,20.80
2008,07,12,15,35,20.90
2008,07,12,15,36,20.80
2008,07,12,15,37,20.80
2008,07,12,15,38,20.80
2008,07,12,15,39,21.00
2008,07,12,15,40,21.00
2008,07,12,15,41,21.20
2008,07,12,15,42,21.30
2008,07,12,15,43,21.60
2008,07,12,15,44,21.70
2008,07,12,15,45,21.80
2008,07,12,15,46,21.70
2008,07,12,15,47,21.50
2008,07,12,15,48,21.20
2008,07,12,15,49,21.10
2008,07,12,15,50,20.90
2008,07,12,15,51,20.90
2008,07,12,15,52,20.90
2008,07,12,15,53,20.90
2008,07,12,15,54,21.00
2008,07,12,15,55,21.00
2008,07,12,15,56,21.10
2008,07,12,15,57,21.10
2008,07,12,15,58,21.10
2008,07,12,15,59,21.10
2008,07,12,16,00,21.30
2008,07,12,16,01,21.40
2008,07,12,16,02,21.50
2008,07,12,16,03,21.70
2008,07,12,16,04,21.70
2008,07,12,16,05,21.80
2008,07,12,16,06,21.80
2008,07,12,16,07,21.80
2008,07,12,16,08,21.80
2008,07,12,16,09,22.00
2008,07,12,16,10,22.00
2008,07,12,16,11,22.00
2008,07,12,16,12,21.90
2008,07,12,16,13,21.70
2008,07,12,16,14,21.60
2008,07,12,16,15,21.60
2008,07,12,16,16,21.50
2008,07,12,16,17,21.40
2008,07,12,16,18,21.40
2008,07,12,16,19,21.30
2008,07,12,16,20,21.40
2008,07,12,16,21,21.50
2008,07,12,16,22,21.50
2008,07,12,16,23,21.50
2008,07,12,16,24,21.60
2008,07,12,16,25,21.70
2008,07,12,16,26,21.90
2008,07,12,16,27,21.90
2008,07,12,16,28,22.00
2008,07,12,16,29,22.00
2008,07,12,16,30,22.10
2008,07,12,16,31,22.00
2008,07,12,16,32,22.00
2008,07,12,16,33,22.00
2008,07,12,16,34,22.10
2008,07,12,16,35,22.10
2008,07,12,16,36,22.10
2008,07,12,16,37,22.10
2008,07,12,16,38,22.20
2008,07,12,16,39,22.10
2008,07,12,16,40,22.10
2008,07,12,16,41,22.10
2008,07,12,16,42,22.00
2008,07,12,16,43,22.00
2008,07,12,16,44,22.10
2008,07,12,16,45,22.20
2008,07,12,16,46,22.20
2008,07,12,16,47,22.20
2008,07,12,16,48,22.10
2008,07,12,16,49,22.00
2008,07,12,16,50,22.00
2008,07,12,16,51,21.90
2008,07,12,16,52,21.80
2008,07,12,16,53,21.70
2008,07,12,16,54,21.60
2008,07,12,16,55,21.60
2008,07,12,16,56,21.40
2008,07,12,16,57,21.30
2008,07,12,16,58,21.30
2008,07,12,16,59,21.20
2008,07,12,17,00,21.20
2008,07,12,17,01,21.30
2008,07,12,17,02,21.30
2008,07,12,17,03,21.20
2008,07,12,17,04,21.20
2008,07,12,17,05,21.20
2008,07,12,17,06,21.20
2008,07,12,17,07,21.10
2008,07,12,17,08,21.10
2008,07,12,17,09,21.20
2008,07,12,17,10,21.20
2008,07,12,17,11,21.10
2008,07,12,17,12,20.90
2008,07,12,17,13,20.80
2008,07,12,17,14,20.80
2008,07,12,17,15,20.60
2008,07,12,17,16,20.60
2008,07,12,17,17,20.50
2008,07,12,17,18,20.60
2008,07,12,17,19,20.70